(118) Peitho
ephemeris date magn radius delta ra dec elong phase
Today19 Apr 202413.22.306 AU1.810 AU09h24m+24°46'106.5°24.7°
Opposition1 Jun 202512.72.829 AU1.817 AU16h37m-27°02'175.0°1.8°
(118) Peitho - 2024-04-19
astro.vanbuitenen.nl


 
-1 year
-1 month
-1 day
Now
+1 day
+1 month
+1 year

The interactive orbit chart above shows the body's path through the solar system and its position at the given date. Green and blue lines are shown perpendicular to the ecliptic plane: Green if the path is above the ecliptic plane, blue if it is below. (Left-click and drag to rotate the view; Right-click and drag to move the view; Use scroll wheel to zoom in our out.)

The orbital elements of Peitho are:

            e (Eccentricity)                : 0.1635174
            a (Semimajor axis)              : 2.4370238
            i (Inclination)                 : 7.74813
            Ω (Longitude of ascending node) : 47.63753
            ω (Argument of perihelion)      : 32.94399
            M (Mean anomaly)                : 56.99334
            Epoch                           : 2024 Mar 31

            L (Longitude of perihelion)     : 80.34215
            B (Latitude of perihelion)      : 4.20452
            P (Orbital period in years)     : 3.80            
        

The light curve chart below shows the estimated development of the minor planet's magnitude.


The all-sky chart below shows the path of the minor planet over the same period as the light curve. The current position is marked yellow.





The following chart shows the path of the minor planet in the next few days. The field of view is optimized for (~10x50) binoculars and finderscopes. A more printer-friendly version of the same chart can be found below.




Ephemerides:
Date       Time       RA (2000)    DEC (2000)    delta   radius  elong  phase   PA    magn
2024-04-19 00:00 UT   09 24 53.8   +24 46 26     1.810    2.306  106.5   24.7   111   13.2 
2024-04-19 09:24 UT   09 25 10.1   +24 43 17     1.815    2.306  106.2   24.7   111   13.2 
2024-04-20 00:00 UT   09 25 35.8   +24 38 22     1.823    2.308  105.7   24.8   111   13.2 
2024-04-21 00:00 UT   09 26 19.0   +24 30 14     1.836    2.309  105.0   24.9   111   13.2 
2024-04-22 00:00 UT   09 27 03.5   +24 22 02     1.849    2.311  104.2   24.9   111   13.3 
2024-04-23 00:00 UT   09 27 49.3   +24 13 46     1.862    2.313  103.4   25.0   111   13.3 
2024-04-24 00:00 UT   09 28 36.3   +24 05 26     1.875    2.315  102.7   25.1   111   13.3 
2024-04-25 00:00 UT   09 29 24.5   +23 57 02     1.889    2.317  102.0   25.1   110   13.3 
2024-04-26 00:00 UT   09 30 13.8   +23 48 35     1.902    2.318  101.2   25.2   110   13.3 
2024-04-27 00:00 UT   09 31 04.3   +23 40 03     1.915    2.320  100.5   25.2   110   13.4 
2024-04-28 00:00 UT   09 31 55.8   +23 31 28     1.929    2.322   99.8   25.3   110   13.4 
2024-04-29 00:00 UT   09 32 48.5   +23 22 50     1.942    2.324   99.0   25.3   110   13.4 
2024-04-30 00:00 UT   09 33 42.2   +23 14 07     1.955    2.326   98.3   25.4   110   13.4 
2024-05-01 00:00 UT   09 34 37.0   +23 05 21     1.969    2.327   97.6   25.4   110   13.4 
2024-05-02 00:00 UT   09 35 32.7   +22 56 32     1.982    2.329   96.9   25.4   110   13.4 
2024-05-03 00:00 UT   09 36 29.5   +22 47 39     1.996    2.331   96.2   25.5   110   13.5 
2024-05-04 00:00 UT   09 37 27.2   +22 38 43     2.009    2.333   95.5   25.5   110   13.5 
2024-05-05 00:00 UT   09 38 25.9   +22 29 43     2.023    2.335   94.8   25.5   110   13.5 
2024-05-06 00:00 UT   09 39 25.5   +22 20 41     2.036    2.336   94.1   25.5   110   13.5 
2024-05-07 00:00 UT   09 40 26.0   +22 11 34     2.050    2.338   93.4   25.5   110   13.5 
2024-05-08 00:00 UT   09 41 27.4   +22 02 25     2.064    2.340   92.7   25.5   110   13.5 
2024-05-09 00:00 UT   09 42 29.7   +21 53 12     2.077    2.342   92.1   25.5   110   13.6 
2024-05-10 00:00 UT   09 43 32.9   +21 43 56     2.091    2.344   91.4   25.5   110   13.6 
2024-05-11 00:00 UT   09 44 36.8   +21 34 37     2.105    2.346   90.7   25.5   110   13.6 
2024-05-12 00:00 UT   09 45 41.6   +21 25 15     2.118    2.347   90.0   25.5   110   13.6 
2024-05-13 00:00 UT   09 46 47.1   +21 15 50     2.132    2.349   89.4   25.5   110   13.6 
2024-05-14 00:00 UT   09 47 53.4   +21 06 22     2.146    2.351   88.7   25.5   109   13.6 
2024-05-15 00:00 UT   09 49 00.4   +20 56 51     2.159    2.353   88.1   25.4   109   13.7 
2024-05-16 00:00 UT   09 50 08.2   +20 47 17     2.173    2.355   87.4   25.4   109   13.7 
2024-05-17 00:00 UT   09 51 16.6   +20 37 41     2.187    2.357   86.7   25.4   109   13.7 
2024-05-18 00:00 UT   09 52 25.7   +20 28 01     2.200    2.358   86.1   25.3   109   13.7 
2024-05-19 00:00 UT   09 53 35.5   +20 18 19     2.214    2.360   85.5   25.3   109   13.7 


    Terminology:
            
    delta:  distance between minor planet and earth in AU
    radius: distance between minor planet and sun in AU
    magn:   magnitude (brightness) estimate    
    ra:     right ascension in hours (24h = 360deg)
    dec:    declination in degrees
    elong:  elongation in degrees (angle sun-earth-minor planet)    
    phase:  phase angle in degrees (angle sun-minor planet-earth)        
    AU:     Astronomical Unit (mean distance between earth and sun: 149597870.7 km
    

Orbital elements provided by the MPC (Minor Planet Center).
Calculations by a modified version of AAPlus, a C# implementation of the AA+ project by PJ Naughter from the algorithms presented in the book "Astronomical Algorithms" by Jean Meeus.
NGC2000 dso catalog and star labels from VizieR as provided by the Strasbourg astronomical Data Center.
Tycho2 catalog from the ESO archive.